星链-34563 (STARLINK-34563)

导读

STARLINK-34563是美国SpaceX星链星座的卫星,于2025年6月28日发射入轨,属于星链低轨互联网星座组网卫星。星链项目旨在为全球提供高速低延迟宽带互联网服务,该卫星延续了星链卫星的设计特点,加入星座后将进一步补充全球网络覆盖能力,提升星链系统服务容量与稳定性。

Basic Information
目录编号:
64708
目录名称:
STARLINK-34563
国际标识:
2025-142N
轨道中心:
EARTH
卫星名称:
星链-34563
卫星全名:
星链-34563 (STARLINK-34563)
卫星状态:
在轨 (已飞行433 天)
发射日期:
2025-06-28 UTC
国别 :
美国 (US)
星等 :
--
Orbit Information
数据来源 国际轨道数据
星历时间: 2026-09-04T04:00:02+0800
10小时前
查看轨道信息
半长轴: 6855.328km
偏心率: 0.0002649
轨道倾角: 70.000°
近地点辐角 263.262°
升交点赤经 224.965°
平近点角 77.982°
近地点: 475.375km
远地点: 479.007km
周期: 94.146分钟
每日圈数: 15.295387
Detailed Information
固有亮度:
5
最大亮度:
2.5
卫星平台:
Starlink V1.0
覆盖范围:
全球
运营商:
太空探索技术公司
运营商所在国:
美国
制造商(研发单位):
太空探索技术公司
制造商所在国:
美国
使用方式:
暂无
Satellite Introduction
Starlink 计划是 SpaceX 推出的全球卫星互联网项目,通过发射低轨道卫星,为全球尤其是偏远地区提供高速、低延迟的互联网服务。自 2019 年起,Starlink 已部署数千颗卫星,旨在缩小全球数字鸿沟,推动互联网普及。该项目还为军事、航空等行业提供通信支持,带来广泛经济效益。
2D Orbit Map
3D Orbit Map
Orbit Altitude Analysis Chart
Orbit Inclination Analysis Chart
Orbit Comprehensive Analysis Chart
View Comprehensive Chart
Conjunction Data List
Event ID Objects TCA Miss Dist (km) Collision Risk Probability Collision Risk Index (CRI) Action
CDM_260905-085006-249606-470821
2026-09-05T
08:50:41+0000
0.789 km
远距离
5.086018E-5 中风险 0.69
CDM_260905-051505-691306-470821
2026-09-05T
05:15:06+0000
1.036 km
极远距离
1.68433E-5 中风险 0.6
CDM_260831-102005-546306-470821
2026-08-31T
10:20:51+0000
1.711 km
极远距离
3.962051E-6 低风险 0.47
CDM_260904-122505-710706-470821
2026-09-04T
12:25:28+0000
1.880 km
极远距离
2.875485E-6 低风险 0.44
CDM_260903-124905-887506-470821
2026-09-03T
12:49:56+0000
2.190 km
极远距离
1.798275E-6 低风险 0.4
CDM_260904-023305-691306-470821
2026-09-04T
02:33:50+0000
2.148 km
极远距离
1.735717E-6 低风险 0.4
CDM_260904-074706-470806-717721
2026-09-04T
07:47:22+0000
2.418 km
极远距离
1.690111E-6 低风险 0.4
CDM_260905-121805-691306-470821
2026-09-05T
12:18:59+0000
2.280 km
极远距离
1.559053E-6 低风险 0.39
CDM_260902-124704-844306-470821
2026-09-02T
12:47:12+0000
2.605 km
极远距离
1.520572E-6 低风险 0.39
CDM_260904-005905-691306-470821
2026-09-04T
00:59:39+0000
2.347 km
极远距离
1.441311E-6 低风险 0.38